Погода в Либерии

Коста-Рика     10°37′37″N   85°26′37″W
темп.,
°C
ветер,
м/с
пор.,
м/с
влажн.,
%
обл.,
%
осадки,
мм/ч
давл.,
гПа
погр.,
м
16 мая, вс
вс1600:00+23св3880100 0.0 1012260
03:00+23св3579100 0.0 1011137
06:00+23св368154 0.0 1012289
09:00+30всв3550100 0.0 10121273
12:00+33св2542100 0.0 10111802
15:00+33всв3443100 0.0 10091989
18:00+28ссв24610 0.0 1011162
21:00+24св23751 0.0 101363
17 мая, пн
пн1700:00+23всв237799 0.0 101258
03:00+22св22832 0.0 101137
06:00+23св23817 0.0 101387
09:00+30всв2347100 0.0 10131260
12:00+34з143787 0.0 10112227
15:00+28з455788 0.1 1010508
18:00+27зюз236960 0.1 1012322
21:00+25зсз017663 0.0 1013157
18 мая, вт
вт1800:00+24св11817 0.0 101318
03:00+23ссв22835 0.0 101232
06:00+23всв227896 0.0 101382
09:00+31ююз12385 0.0 10131387
12:00+35з443113 0.0 10112284
15:00+31з4345100 0.0 10091093
18:00+27зюз346481 0.0 1010178
21:00+25вюв1181100 0.0 101222
19 мая, ср
ср1900:00+24всв118571 0.0 101214
03:00+23всв1188100 0.0 101118
06:00+24св12839 0.0 101279
09:00+31зюз124942 0.0 10121559
12:00+30з545795 0.1 1011892
15:00+32з444824 0.1 10071364
18:00+27з22701 0.1 1009113
21:00+25зсз01815 0.0 101020
20 мая, чт
чт2000:00+24с1185100 0.0 101017
03:00+23ссв11868 0.0 100918
06:00+24св12786 0.0 101072
09:00+32юв13440 0.0 10101387
12:00+35з343662 0.0 10082217
15:00+30з335598 0.0 1007690
18:00+28зюз236659 0.1 1008236
21:00+25вюв11805 0.3 101017